DECAYED

STARLINK-3321, 50803 (Decayed)

Orbit data source: Space-Track

STARLINK-3321, 50803 was a payload satellite owned by SpaceX/Seattle (US) in LEO that was launched on Thu, 06 Jan 2022 UTC via an FALCON 9 launch vehicle from the Air Force Eastern Test Range (AFETR). Payload-class satellites include a variety of spacecraft equipped with specific instruments for various scientific and technological missions. These include communications satellites like Starlink; space stations such as the ISS; scientific satellites like the Hubble; Earth observation satellites from companies like Planet Labs, Umbra, and HawkEye 360; GPS; miniature CubeSats for education and research; and military/defense satellites.

Not visible in the next 10 days
Identifier
50803, 2022-001A
Orbit
Decayed
Country
Flag of USUS
Related business
Manufacturer
SpaceX/Seattle
Mission
Decayed Commercial Communications
Bus & Motor
STARLINK, Unknown motor
Mass
297 kg wet, ~275 kg dry
Launch date (UTC)
2022-01-06 (4 years ago)
Launch vehicle
FALCON 9
Launch site
Air Force Eastern Test Range (AFETR)
Object type
Payload
Rocket body
Debris
Shape & HBR
Box + 1 Pan, 10.1 m
Radar Cross Section
13.562 m², Large (>1 m²)

Expand to show TLE details & history
Last TLE update: 1 year ago

TLE from 1 year ago
0 STARLINK-3321
1 50803U 22001A   25034.40462950  .15211588  12545-4  29856-3 0  9990
2 50803  53.1892 133.2971 0001946 261.4992 143.0296 16.47250370171790
Epoch: 2025-02-03T09:42Z
TLE epoch observation values (Epoch: 2025-02-03T09:42:39.988Z)
Latitude
34.28069°
Longitude
-115.71651°
Altitude
150.042 km
Speed
7.82 km/s
True Right ascension
10h 55m 05s
True Declination
34° 06' 21"
Sunlit
Object was in full shadow at epoch
Visualization orbit readout
Latitude
Unknown
Longitude
Unknown
Altitude
Unknown
Speed
Unknown
Apparent Right ascension
Unknown
Apparent Declination
Unknown
Sunlit
N/A
Visualization observer readout
Local Sidereal Time
21:34:35
Azimuth
Unknown
Elevation
Unknown
Doppler factor
Unknown
Orbital elements
Apogee altitude
148.12 km
Perigee altitude
145.581 km
Semi-major axis
6,524.987 km
Eccentricity
0.00019
Inclination
53.1892°
RAAN
133.2971°
Arg. of periapsis
261.4992°
True anomaly
143.04301°
Mean anomaly
143.0296°
Eccentric anomaly
143.0363°
Mean motion
4.11788 °/min
Orbital period
87.42 mins
BSTAR
0.00029856
Loading maneuver chart data...
Computing Atmospheric mass density...
Loading historical data...
Loading historical data...
Loading historical data...
Loading historical data...
Loading historical data...
Loading historical data...
Loading historical data...

Documentation

Showing up to 5 results
|